Retour au catalogue

CZ-4 DEB

ActifSSO
NORAD 37626·DEBRIS·🇨🇳 China

Lancé Sep 3, 1990 depuis Taiyuan Satellite Launch Center

Loading…

Prochains Passages (prochaines 24 heures)

TLE

FraisSource: Space-Track

Époque: Sep 14, 2026, 07:45 UTC

1 37626U 90081DN  26257.32307774  .00000167  00000-0  20533-3 0  9997
2 37626  98.9503 198.4253 0161804 156.3177 355.5143 13.72415214153513

Suivez CZ-4 DEB en temps réel avec AllMySat

Download on the App Store